Home > Weather > Ilio > Past weeks

Flag for Greece Past Weather in Ilio, Greece — Yesterday and Last 2 Weeks

Now
79 °F

Sunny.


Feels Like: 81 °F
Forecast: 73 / 91 °F
Wind: 3 mph from North

Location: Elefsis Airport

Current Time: Jun 30, 2016 at 10:33:40 PM

Latest Report: Jun 30, 2016 at 9:50 PM


Visibility: 10 mi

Pressure: 29.98 "Hg

Humidity: 61%

Dew Point: 64 °F

Location of IlioLocation

Past Weather in Ilio — Graph

°F

Ilio Temperature Yesterday

Maximum temperature yesterday: 91 °F (at 4:20 PM)
Minimum temperature yesterday: 72 °F (at 12:50 AM)
Average temperature yesterday: 81 °F

High & Low Weather Summary for the Past Weeks

 TemperatureHumidityPressure
High104 °F (Jun 19, 1:20 PM)88% (Jun 28, 7:20 PM)30.04 "Hg (Jun 28, 7:20 PM)
Low66 °F (Jun 16, 6:20 AM)14% (Jun 19, 2:20 PM)29.68 "Hg (Jun 25, 6:20 PM)
Average86 °F38%29.87 "Hg
* Reported Jun 15 9:20 PM — Jun 30 9:20 PM, Ilio, Weather by CustomWeather, © 2016

Note: Actual official high and low records may vary slightly from our data, if they occured in-between our weather recording intervals... More about our weather records

Advertising

Ilio Weather History for the Previous 24 Hours

Scroll right to see more
 ConditionsComfort  
Time TempWeatherWind HumidityBarometerVisibility
9:20 PM
Thu, Jun 30
81 °FSunny.3 mph58%29.95 "Hg10 mi
8:50 PM81 °FSunny.5 mph58%29.95 "Hg10 mi
8:20 PM81 °FSunny.6 mph58%29.95 "Hg10 mi
7:50 PM82 °FSunny.6 mph55%29.95 "Hg10 mi
7:20 PM82 °FPassing clouds.6 mph55%29.95 "HgN/A
6:50 PM84 °FPassing clouds.7 mph51%29.95 "HgN/A
6:20 PM86 °FPassing clouds.9 mph46%29.92 "HgN/A
5:50 PM90 °FPassing clouds.10 mph36%29.95 "HgN/A
5:20 PM90 °FScattered clouds.8 mph33%29.95 "HgN/A
4:50 PM90 °FScattered clouds.7 mph33%29.95 "HgN/A
4:20 PM91 °FScattered clouds.8 mph32%29.95 "HgN/A
3:50 PM91 °FScattered clouds.12 mph32%29.95 "HgN/A
3:20 PM90 °FScattered clouds.12 mph31%29.95 "HgN/A
2:50 PM88 °FScattered clouds.12 mph35%29.95 "HgN/A
2:20 PM88 °FScattered clouds.13 mph35%29.95 "HgN/A
1:50 PM91 °FScattered clouds.7 mph26%29.95 "HgN/A
1:20 PM93 °FPassing clouds.8 mph26%29.95 "HgN/A
12:50 PM91 °FPassing clouds.9 mph28%29.95 "HgN/A
12:20 PM91 °FPassing clouds.9 mph28%29.95 "HgN/A
11:50 AM90 °FPassing clouds.7 mph29%29.95 "HgN/A
11:20 AM90 °FPassing clouds.9 mph29%29.95 "HgN/A
10:50 AM88 °FSunny.8 mph31%29.95 "Hg10 mi
10:20 AM86 °FSunny.9 mph33%29.95 "Hg10 mi
9:50 AM86 °FSunny.9 mph33%29.95 "Hg10 mi
9:20 AM84 °FSunny.8 mph35%29.95 "Hg10 mi
8:50 AM82 °FSunny.2 mph40%29.95 "Hg10 mi
8:20 AM82 °FPassing clouds.2 mph37%29.95 "HgN/A
7:50 AM77 °FPassing clouds.5 mph47%29.95 "HgN/A
7:20 AM75 °FSunny.6 mph50%29.95 "Hg10 mi
6:50 AM72 °FClear.No wind57%29.95 "Hg10 mi
6:20 AM72 °FClear.No wind57%29.95 "Hg10 mi
5:50 AM70 °FPassing clouds.No wind60%29.92 "HgN/A
5:20 AM72 °FPassing clouds.No wind57%29.92 "HgN/A
4:50 AM72 °FPassing clouds.No wind57%29.92 "HgN/A
4:20 AM70 °FPassing clouds.No wind60%29.92 "HgN/A
3:50 AM72 °FPassing clouds.3 mph57%29.92 "HgN/A
3:20 AM72 °FPassing clouds.No wind57%29.92 "HgN/A
2:50 AM72 °FPassing clouds.3 mph57%29.92 "HgN/A
1:50 AM72 °FPassing clouds.No wind57%29.92 "HgN/A
12:50 AM73 °FPassing clouds.No wind57%29.92 "HgN/A
12:20 AM75 °FPassing clouds.No wind61%29.92 "HgN/A
11:50 PM
Wed, Jun 29
75 °FClear.No wind47%29.92 "Hg10 mi
11:20 PM77 °FPassing clouds.3 mph47%29.89 "HgN/A
10:50 PM77 °FPassing clouds.No wind47%29.89 "HgN/A
10:20 PM79 °FPassing clouds.No wind58%29.89 "HgN/A
Weather by CustomWeather, © 2016

See weather overviewHow to use our weather pages